Weather History for Monroe, MI

Change the Weather History Date:

Thursday, December 29, 2011

  Actual Average Record
Temperature  
Mean Temperature 34 °F -  
Max Temperature 42 °F 33 °F 64 °F (1984)
Min Temperature 26 °F 19 °F -2 °F (1961)
Degree Days  
Heating Degree Days 31    
Moisture  
Dew Point 32 °F    
Average Humidity 90    
Maximum Humidity 100    
Minimum Humidity 74    
Precipitation  
Precipitation 0.00 in - - ()
Sea Level Pressure  
Sea Level Pressure 29.74 in    
Wind  
Wind Speed 6 mph (South)    
Max Wind Speed 12 mph    
Max Gust Speed -    
Visibility 9 miles    
Events Rain , Snow    
Averages and records for this station are not official NWS values.
T = Trace of Precipitation, MM = Missing Value Source: NWS Daily Summary

Daily Weather History Graph

Daily Weather History Graph

Search for Another Location

Airport:

Trip Planner

Search our weather history database for the weather conditions in past years. The results will help you decide how hot, cold, wet, or windy it might be!

Date:

Astronomy

Dec. 29, 2011 Rise Set
Actual Time 8:01 AM EST 5:10 PM EST
Civil Twilight 7:29 AM EST 5:42 PM EST
Nautical Twilight 6:54 AM EST 6:17 PM EST
Astronomical Twilight 6:20 AM EST 6:51 PM EST
Moon 10:49 AM EST (12/29) 10:51 PM EST (12/29)
Length of Visible Light 10h 12m
Length of Day
9h 09m
Waxing Crescent, 26% of the Moon is Illuminated
Dec 29
Waxing Crescent
Jan 1
First Quarter
Jan 9
Full
Jan 16
Last Quarter
Jan 23
New

Hourly Weather History & Observations

Time (EST) Temp. Windchill Dew Point Humidity Pressure Visibility Wind Dir Wind Speed Gust Speed Precip Events Conditions
12:15 AM 26.6 °F 22.6 °F 19.4 °F 74% 29.95 in 10.0 mi South 3.5 mph - N/A   Overcast
12:35 AM 26.6 °F 22.6 °F 21.2 °F 80% 29.94 in 10.0 mi South 3.5 mph - N/A   Overcast
12:50 AM 26.6 °F 21.2 °F 21.2 °F 80% 29.94 in 10.0 mi South 4.6 mph - N/A   Overcast
1:12 AM 26.6 °F 22.6 °F 23.0 °F 86% 29.93 in 10.0 mi South 3.5 mph - N/A   Overcast
1:32 AM 28.4 °F 23.3 °F 23.0 °F 80% 29.92 in 10.0 mi SSE 4.6 mph - N/A   Overcast
1:52 AM 28.4 °F 24.6 °F 24.8 °F 86% 29.91 in 10.0 mi South 3.5 mph - N/A   Overcast
2:33 AM 28.4 °F 22.2 °F 24.8 °F 86% 29.92 in 10.0 mi South 5.8 mph - N/A   Overcast
2:53 AM 28.4 °F 21.2 °F 24.8 °F 86% 29.91 in 10.0 mi South 6.9 mph - N/A   Overcast
3:13 AM 28.4 °F 23.3 °F 24.8 °F 86% 29.91 in 10.0 mi SSE 4.6 mph - N/A   Overcast
3:33 AM 28.4 °F 23.3 °F 24.8 °F 86% 29.89 in 10.0 mi SSE 4.6 mph - N/A   Overcast
3:53 AM 28.4 °F 22.2 °F 26.6 °F 93% 29.88 in 10.0 mi SSE 5.8 mph - N/A   Overcast
4:13 AM 30.2 °F 23.4 °F 26.6 °F 86% 29.86 in 10.0 mi SSE 6.9 mph - N/A   Overcast
4:33 AM 30.2 °F 23.4 °F 26.6 °F 86% 29.86 in 10.0 mi SSE 6.9 mph - N/A   Overcast
4:53 AM 30.2 °F 23.4 °F 26.6 °F 86% 29.85 in 10.0 mi South 6.9 mph - N/A   Overcast
5:14 AM 30.2 °F 24.3 °F 26.6 °F 86% 29.84 in 10.0 mi SSE 5.8 mph - N/A   Overcast
5:34 AM 30.2 °F 23.4 °F 26.6 °F 86% 29.84 in 10.0 mi SSE 6.9 mph - N/A   Overcast
5:54 AM 30.2 °F 23.4 °F 26.6 °F 86% 29.83 in 10.0 mi SSE 6.9 mph - N/A   Overcast
6:14 AM 30.2 °F 25.4 °F 26.6 °F 86% 29.82 in 10.0 mi SSE 4.6 mph - N/A   Mostly Cloudy
6:54 AM 30.2 °F 21.9 °F 28.4 °F 93% 29.81 in 10.0 mi SSE 9.2 mph - N/A   Overcast
7:14 AM 30.2 °F 22.6 °F 28.4 °F 93% 29.80 in 10.0 mi SSE 8.1 mph - N/A   Overcast
7:34 AM 32.0 °F 24.2 °F 28.4 °F 87% 29.79 in 10.0 mi SSE 9.2 mph - N/A   Overcast
7:54 AM 32.0 °F 24.2 °F 28.4 °F 87% 29.79 in 7.0 mi SSE 9.2 mph - N/A   Overcast
8:15 AM 32.0 °F 23.6 °F 28.4 °F 87% 29.78 in 10.0 mi SSE 10.4 mph - N/A   Overcast
8:35 AM 33.8 °F 27.7 °F 30.2 °F 87% 29.78 in 7.0 mi SSE 6.9 mph - N/A   Overcast
8:55 AM 33.8 °F 27.0 °F 30.2 °F 87% 29.78 in 7.0 mi South 8.1 mph - N/A   Mostly Cloudy
9:15 AM 33.8 °F 27.0 °F 30.2 °F 87% 29.78 in 7.0 mi South 8.1 mph - N/A   Mostly Cloudy
9:35 AM 33.8 °F 27.0 °F 30.2 °F 87% 29.77 in 7.0 mi South 8.1 mph - N/A   Overcast
9:55 AM 35.6 °F 29.2 °F 30.2 °F 81% 29.77 in 7.0 mi South 8.1 mph - N/A   Mostly Cloudy
10:15 AM 35.6 °F 29.2 °F 30.2 °F 81% 29.76 in 7.0 mi South 8.1 mph - N/A   Mostly Cloudy
10:35 AM 35.6 °F 28.6 °F 30.2 °F 81% 29.76 in 7.0 mi South 9.2 mph - N/A   Overcast
10:55 AM 35.6 °F 28.6 °F 33.8 °F 93% 29.75 in 5.0 mi South 9.2 mph - N/A Snow Light Snow
11:10 AM 35.6 °F 28.0 °F 33.8 °F 93% 29.73 in 5.0 mi South 10.4 mph - N/A Snow Light Snow
11:31 AM 35.6 °F 28.0 °F 33.8 °F 93% 29.71 in 3.0 mi South 10.4 mph - N/A Snow Light Snow
11:51 AM 35.6 °F 28.6 °F 35.6 °F 100% 29.70 in 3.0 mi South 9.2 mph - N/A Snow Light Snow
12:11 PM 35.6 °F 28.0 °F 35.6 °F 100% 29.67 in 4.0 mi SSE 10.4 mph - N/A Rain Light Rain
12:31 PM 35.6 °F 27.5 °F 35.6 °F 100% 29.65 in 4.0 mi SSE 11.5 mph - N/A   Overcast
12:51 PM 35.6 °F 28.6 °F 35.6 °F 100% 29.65 in 5.0 mi South 9.2 mph - N/A   Overcast
1:32 PM 37.4 °F 30.8 °F 37.4 °F 100% 29.62 in 7.0 mi South 9.2 mph - N/A   Overcast
2:12 PM 37.4 °F 29.8 °F 37.4 °F 100% 29.61 in 7.0 mi South 11.5 mph - N/A   Scattered Clouds
2:32 PM 39.2 °F 32.5 °F 39.2 °F 100% 29.60 in 7.0 mi South 10.4 mph - N/A   Scattered Clouds
2:52 PM 39.2 °F 32.0 °F 37.4 °F 93% 29.58 in 10.0 mi SSE 11.5 mph - N/A   Scattered Clouds
3:32 PM 39.2 °F 33.6 °F 37.4 °F 93% 29.59 in 10.0 mi SSE 8.1 mph - N/A   Scattered Clouds
4:12 PM 39.2 °F 35.0 °F 37.4 °F 93% 29.59 in 10.0 mi SSE 5.8 mph - N/A   Scattered Clouds
4:32 PM 39.2 °F 34.2 °F 37.4 °F 93% 29.59 in 10.0 mi South 6.9 mph - N/A   Scattered Clouds
5:13 PM 37.4 °F 32.1 °F 35.6 °F 93% 29.60 in 10.0 mi South 6.9 mph - N/A   Clear
5:33 PM 37.4 °F 34.9 °F 35.6 °F 93% 29.61 in 10.0 mi South 3.5 mph - N/A   Scattered Clouds
5:53 PM 39.2 °F 37.0 °F 37.4 °F 93% 29.61 in 10.0 mi SSE 3.5 mph - N/A   Overcast
6:13 PM 39.2 °F 37.0 °F 37.4 °F 93% 29.61 in 10.0 mi SSE 3.5 mph - N/A   Overcast
6:33 PM 39.2 °F 37.0 °F 37.4 °F 93% 29.62 in 10.0 mi SSE 3.5 mph - N/A   Overcast
6:53 PM 39.2 °F 35.0 °F 37.4 °F 93% 29.62 in 10.0 mi SE 5.8 mph - N/A   Overcast
7:13 PM 39.2 °F 37.0 °F 37.4 °F 93% 29.63 in 10.0 mi SE 3.5 mph - N/A   Overcast
7:53 PM 39.2 °F 35.9 °F 37.4 °F 93% 29.64 in 10.0 mi SSE 4.6 mph - N/A   Overcast
8:13 PM 39.2 °F 35.0 °F 37.4 °F 93% 29.64 in 10.0 mi South 5.8 mph - N/A   Overcast
8:34 PM 39.2 °F 35.9 °F 39.2 °F 100% 29.64 in 10.0 mi South 4.6 mph - N/A   Overcast
8:54 PM 39.2 °F 35.9 °F 39.2 °F 100% 29.65 in 10.0 mi South 4.6 mph - N/A   Overcast
9:14 PM 39.2 °F 37.0 °F 39.2 °F 100% 29.65 in 10.0 mi South 3.5 mph - N/A   Overcast
9:34 PM 39.2 °F - 39.2 °F 100% 29.65 in 10.0 mi Calm Calm - N/A   Overcast
9:54 PM 41.0 °F 38.0 °F 39.2 °F 93% 29.66 in 10.0 mi SW 4.6 mph - N/A   Overcast
10:34 PM 41.0 °F 37.1 °F 39.2 °F 93% 29.66 in 10.0 mi SW 5.8 mph - N/A   Overcast
10:54 PM 41.0 °F 37.1 °F 39.2 °F 93% 29.68 in 10.0 mi SW 5.8 mph - N/A   Overcast
11:35 PM 42.8 °F 38.6 °F 39.2 °F 87% 29.69 in 10.0 mi WSW 6.9 mph - N/A   Overcast
11:55 PM 42.8 °F 38.0 °F 39.2 °F 87% 29.70 in 10.0 mi WSW 8.1 mph - N/A   Overcast